Regional Weather Roundup
Issued by NWS Green Bay, WI

Home | Current Version | Previous Version | Graphics & Text | Print | Product List | Glossary Off
Versions: 1 2 3 4 5 6 7 8 9 10 11 12 13 14 15 16 17 18 19 20 21 22 23 24 25 26 27 28 29 30 31 32 33 34 35 36 37 38 39 40 41 42 43 44 45 46 47 48 49 50

704
ASUS43 KGRB 231011
RWRGRB

NORTH-CENTRAL AND NORTHEAST WISCONSIN REGIONAL WEATHER ROUNDUP
NATIONAL WEATHER SERVICE GREEN BAY WI
500 AM CDT WED AUG 23 2017

WIZ005-009-010>012-018-019-231100-
NORTH CENTRAL WISCONSIN

CITY           SKY/WX    TMP DP  RH WIND       PRES   REMARKS
IRONWOOD       MOCLDY    55  54  94 W6        30.00R
MANITOWISH WTR CLOUDY    53  53 100 W5        30.00R
ARBOR VITAE    CLOUDY    57  55  94 NW6       30.00R
EAGLE RIVER    LGT RAIN  53  53  98 W6        29.98S
LAND O LAKES   CLOUDY    55  52  91 NW6       30.00R
RHINELANDER    PTCLDY    50  50 100 W5        30.00S
PHILLIPS       CLEAR     49  49 100 CALM      30.02R
ANTIGO         CLEAR     50  50 100 W7        29.99S
TOMAHAWK         N/A     46  45  97 CALM      30.01S FOG
MERRILL        CLEAR     50  50 100 CALM      30.01S
$$

WIZ013-073-231100-
NORTHEAST WISCONSIN

CITY           SKY/WX    TMP DP  RH WIND       PRES   REMARKS
IRON MOUNTAIN  CLEAR     53  50  89 W7        29.94R
MARINETTE      CLEAR     54  52  93 W5        29.95R
OCONTO         CLEAR     54  51  89 W6        29.95R
$$

WIZ017-030-035>037-045-231100-
CENTRAL WISCONSIN

CITY           SKY/WX    TMP DP  RH WIND       PRES   REMARKS
MEDFORD        CLEAR     48  47  98 CALM      30.02S
WAUSAU         PTCLDY    53  50  89 NW9       29.99S
MOSINEE        CLEAR     50  50 100 W8        30.02R
MARSHFIELD     CLEAR     51  47  86 NW5       30.02R
WISC RAPIDS    CLEAR     52  49  89 NW6       30.03R
STEVENS POINT  CLEAR     52  50  93 W5        30.01S
WAUPACA        CLEAR     56  51  82 W5        30.00S
SHAWANO        CLEAR     56  52  86 W6        29.97S
CLINTONVILLE   CLEAR     54  50  87 W8        29.98S
WAUTOMA        CLEAR     51  49  92 W6        30.02R
$$

WIZ038-039-048-051-231100-
FOX VALLEY

CITY           SKY/WX    TMP DP  RH WIND       PRES   REMARKS
NWS GREEN BAY  CLEAR     53  52  96 W8        29.96S
APPLETON       CLEAR     52  46  82 W10       29.97R
OSHKOSH        CLEAR     55  49  80 W8        29.98S
FOND DU LAC    CLEAR     57  48  72 W8        29.99S
$$

WIZ022-050-052-231100-
EAST CENTRAL WISCONSIN

CITY           SKY/WX    TMP DP  RH WIND       PRES   REMARKS
EPHRAIM        FAIR      57  53  87 NW6G16    29.92S
WASHINGTON ISL FAIR      58  53  83 NW12G17   29.91R
STURGEON BAY   CLEAR     59  54  83 NW12G18   29.95R
MANITOWOC      CLEAR     57  50  77 W8        29.96S
SHEBOYGAN      CLEAR     57  53  86 NW5       29.97S
$$

LMZ563-521-522-541>543-231100-
LAKESHORE

STATION/POSITION TIME  TEMP    WIND        PRES    VSBY  WAVE
                       AIR SEA DIR/SP/G                  HT/PER
                 (UTC) (F)     (DEG/KT/KT) (MB)    (MI)  (FT/S)
SHEBOYGAN LKSHOR 1000   60     290/  9/ 11 1014.3S
KEWAUNEE LKSHORE 0942   57     310/  5/  6 1013.1S
NORTHPORT PIER   0940   60     290/ 10/ 16 1012.9R
N MID LAKE BUOY  0950   61 66  310/ 16/ 19 1012.5R         3/ 4
S GREEN BAY BUOY 1000   61 70  290/ 16/ 19 1013.9
SISTER BAY LKSHO 0918   60     320/ 17/ 20   N/A
MENOMINEE LKSHOR 0942   56     260/  6/ 11 1013.5R
$$




USA.gov is the U.S. government's official web portal to all federal, state and local government web resources and services.